CAPE
11 11 8 6 6 4 2 7 8 8 10 16 8 8 13 19 13 13 10 4 4 1 1 2 2 16 25 17 11 11 17 18 15 15 13 10 11 11 24 24 24 6 nan nan nan nan 1 1 1 0 0 nan nan nan nan nan nan nan nan nan nan nan nan nan nan nan nan nan nan nan 32 103 76 76 63 89 107 107 130 99 99 63 49 42 42 93
12 13 10 5 5 4 2 5 7 7 13 18 18 18 22 21 23 23 20 12 12 5 2 9 9 18 15 7 8 8 14 17 15 15 14 11 11 11 23 30 30 5 nan nan nan nan 0 2 2 0 0 nan nan nan nan nan nan nan nan nan nan nan nan nan nan nan nan nan nan nan 0 27 50 50 54 65 70 70 74 80 80 61 72 56 56 120
16 16 12 6 6 4 1 1 5 5 20 24 25 25 15 19 26 26 26 28 28 23 2 4 4 7 4 4 10 10 13 17 16 16 14 12 10 10 19 28 28 6 nan nan nan nan 1 3 3 nan 0 nan nan nan nan nan nan nan nan nan nan nan nan nan nan nan nan nan nan nan nan 4 20 20 26 24 28 28 31 34 34 23 23 62 62 115
15 18 13 8 8 4 1 1 8 8 24 36 25 25 13 18 31 31 40 42 42 58 8 1 1 2 3 5 11 11 14 17 16 16 14 14 11 11 19 19 19 6 nan nan nan nan 1 6 6 nan 0 nan nan nan nan nan nan nan nan nan nan nan nan nan nan nan nan nan nan nan nan nan 1 1 2 0 0 0 2 12 12 18 33 63 63 85
19 23 16 8 8 2 2 4 13 13 33 40 20 20 10 20 37 37 43 44 44 55 21 6 6 8 13 8 11 11 15 19 17 17 16 15 16 16 15 14 14 5 nan nan nan nan 0 10 10 0 0 nan nan nan nan nan nan nan nan nan nan nan nan nan nan nan nan nan nan nan nan nan nan nan nan nan nan nan 0 12 12 32 52 82 82 106
18 28 24 9 9 3 2 7 24 24 33 28 20 20 18 32 33 33 22 20 20 21 16 14 14 12 14 16 19 19 15 19 19 19 18 17 14 14 12 5 5 7 nan nan nan nan nan 11 11 1 0 nan nan nan nan nan nan nan nan nan nan nan nan nan nan nan nan nan nan nan nan nan nan nan nan nan nan nan nan 15 15 26 39 102 102 115
23 34 27 9 9 5 4 10 27 27 30 17 15 15 20 29 26 26 14 11 11 8 7 9 9 13 12 14 23 23 20 19 22 22 21 19 12 12 7 2 2 0 nan nan nan nan nan 17 17 3 0 nan nan nan nan nan nan nan nan nan nan nan nan nan nan nan nan nan nan nan nan nan nan nan nan nan nan nan nan 1 1 17 26 91 91 117
33 35 24 12 12 6 8 15 23 23 22 15 13 13 21 13 8 8 6 4 4 9 7 4 4 4 4 32 24 24 16 14 15 15 18 21 11 11 4 3 3 4 0 nan nan nan nan 14 14 13 0 nan nan nan nan nan nan nan nan nan nan nan nan nan nan nan nan nan nan nan nan nan nan nan nan nan nan nan nan nan nan 3 25 41 41 95
37 30 17 16 16 9 8 12 18 18 20 14 16 16 14 12 4 4 1 1 1 5 4 3 3 3 1 5 24 24 19 19 17 17 22 15 12 12 3 2 2 1 0 nan nan nan nan 10 10 13 5 nan nan nan nan nan nan nan nan nan nan nan nan nan nan nan nan nan nan nan nan nan nan nan nan nan nan nan nan nan nan nan nan 4 4 32
38 33 19 12 12 11 12 12 15 15 19 17 20 20 28 11 2 2 1 0 0 0 0 2 2 2 0 6 30 30 33 29 31 31 27 11 4 4 1 2 2 2 nan nan nan nan nan 7 7 13 5 nan nan nan nan nan nan nan nan nan nan nan nan nan nan nan nan nan nan nan nan nan nan nan nan nan nan nan nan nan nan nan nan nan nan nan
22 33 24 14 14 9 15 17 16 16 13 12 10 10 5 8 8 8 2 0 0 0 0 0 0 1 2 4 8 8 36 33 30 30 25 9 3 3 1 3 3 2 nan nan nan nan nan 7 7 9 1 nan nan nan nan nan nan nan nan nan nan nan nan nan nan nan nan nan nan nan nan nan nan nan nan nan nan nan nan nan nan nan nan nan nan nan
21 26 22 9 9 8 10 14 13 13 10 5 4 4 2 5 14 14 6 2 2 1 1 0 0 0 1 4 7 7 29 38 33 33 27 13 8 8 4 5 5 7 8 4 4 nan 0 10 10 5 nan nan nan nan nan nan nan nan nan nan nan nan nan nan nan nan nan nan nan nan nan nan nan nan nan nan nan nan nan nan nan nan nan nan nan nan
22 27 20 10 10 7 9 10 7 7 5 7 7 7 5 4 8 8 9 4 4 3 2 1 1 0 0 1 7 7 39 46 34 34 24 20 21 21 33 59 59 60 39 20 20 6 1 11 11 6 nan nan nan nan nan nan nan nan nan nan nan nan nan nan nan nan nan nan nan nan nan nan nan nan nan nan nan nan nan nan nan nan nan nan nan nan
23 25 18 10 10 8 10 11 7 7 7 10 9 9 7 7 6 6 4 2 2 3 3 2 2 2 4 13 21 21 20 44 34 34 21 18 31 31 60 108 108 91 67 28 28 10 5 15 15 16 nan nan nan nan nan nan nan nan nan nan nan nan nan nan nan nan nan nan nan nan nan nan nan nan nan nan nan nan nan nan nan nan nan nan nan nan
22 23 18 12 12 9 11 12 9 9 9 11 12 12 8 6 5 5 4 3 3 3 2 3 3 4 8 17 9 9 6 6 8 8 17 34 49 49 77 109 109 131 96 34 34 9 5 19 19 25 12 3 nan nan nan nan nan nan nan nan nan nan nan nan nan nan nan nan nan nan nan nan nan nan nan nan nan nan nan nan nan nan nan nan nan nan
19 19 18 14 14 11 12 13 9 9 8 12 13 13 8 6 6 6 7 5 5 3 1 2 2 5 9 3 4 4 5 3 5 5 5 12 86 86 102 110 110 91 61 27 27 15 8 18 18 21 19 nan nan nan nan nan nan nan nan nan nan nan nan nan nan nan nan nan nan nan nan nan nan nan nan nan nan nan nan nan nan nan nan nan nan nan
20 18 17 16 16 14 11 12 11 11 13 14 13 13 10 8 9 9 10 7 7 4 3 1 1 4 7 14 10 10 4 4 4 4 4 7 74 74 133 130 130 88 52 49 49 34 7 16 16 25 19 nan nan nan nan nan nan nan nan nan nan nan nan nan nan nan nan nan nan nan nan nan nan nan nan nan nan nan nan nan nan nan nan nan nan nan
19 16 16 16 16 15 13 12 14 14 16 14 12 12 9 9 10 10 10 10 10 5 4 3 3 3 3 5 7 7 5 6 4 4 3 5 27 27 90 123 123 103 72 86 86 69 19 15 15 35 8 nan nan nan nan nan nan nan nan nan nan nan nan nan nan nan nan nan nan nan nan nan nan nan nan nan nan nan nan nan nan nan nan nan nan nan
16 14 16 17 17 16 14 13 13 13 13 16 16 16 11 8 10 10 14 13 13 7 4 3 3 3 2 3 1 1 6 7 4 4 3 5 23 23 41 77 77 109 55 53 53 71 39 35 35 8 nan nan nan nan nan nan nan nan nan nan nan nan nan nan nan nan nan nan nan nan nan nan nan nan nan nan nan nan nan nan nan nan nan nan nan nan
16 14 15 16 16 17 16 16 17 17 19 26 22 22 13 10 12 12 14 12 12 7 5 3 3 2 2 1 0 0 5 9 4 4 3 5 13 13 36 59 59 115 41 38 38 87 44 30 30 10 nan nan nan nan nan nan nan nan nan nan nan nan nan nan nan nan nan nan nan nan nan nan nan nan nan nan nan nan nan nan nan nan nan nan nan nan
16 14 15 21 21 20 17 18 20 20 32 41 28 28 15 11 14 14 14 9 9 5 4 2 2 2 1 1 nan nan 3 8 5 5 5 5 10 10 41 55 55 99 62 75 75 86 37 32 32 44 nan nan nan nan nan nan nan nan nan nan nan nan nan nan nan nan nan nan nan nan nan nan nan nan nan nan nan nan nan nan nan nan nan nan nan nan
17 16 19 25 25 22 25 23 37 37 47 51 27 27 15 15 16 16 13 8 8 5 4 2 2 1 1 0 nan nan 2 8 6 6 6 5 7 7 33 35 35 101 107 101 101 120 82 59 59 41 nan nan nan nan nan nan nan nan nan nan nan nan nan nan nan nan nan nan nan nan nan nan nan nan nan nan nan nan nan nan nan nan nan nan nan nan
19 22 25 27 27 27 27 28 39 39 56 46 32 32 22 25 23 23 17 9 9 6 4 2 2 1 1 nan nan nan 2 5 6 6 5 4 6 6 13 18 18 65 145 115 115 118 116 96 96 34 nan nan nan nan nan nan nan nan nan nan nan nan nan nan nan nan nan nan nan nan nan nan nan nan nan nan nan nan nan nan nan nan nan nan nan nan
25 27 27 26 26 34 38 36 40 40 41 36 29 29 37 34 26 26 16 12 12 9 8 4 4 2 1 1 1 1 2 4 5 5 5 5 8 8 13 18 18 54 130 129 129 109 130 93 93 49 nan nan nan nan nan nan nan nan nan nan nan nan nan nan nan nan nan nan nan nan nan nan nan nan nan nan nan nan nan nan nan nan nan nan nan nan
22 23 25 27 27 51 44 40 43 43 35 28 27 27 33 45 35 35 18 12 12 10 8 3 3 0 nan 2 10 10 13 10 4 4 6 7 19 19 13 10 10 22 61 93 93 125 127 92 92 51 6 nan nan nan nan nan nan nan nan nan nan nan nan nan nan nan nan nan nan nan nan nan nan nan nan nan nan nan nan nan nan nan nan nan nan nan
33 33 34 46 46 71 75 70 60 60 48 31 28 28 34 34 20 20 10 8 8 6 4 1 1 1 0 5 13 13 14 15 16 16 9 9 16 16 15 8 8 4 9 38 38 113 145 91 91 60 23 nan nan nan nan nan nan nan nan nan nan nan nan nan nan nan nan nan nan nan nan nan nan nan nan nan nan nan nan nan nan nan nan nan nan nan
52 58 70 75 75 70 65 60 57 57 61 56 41 41 35 23 12 12 6 5 5 5 3 1 1 1 1 4 8 8 7 12 6 6 6 6 6 6 9 9 9 4 2 10 10 74 122 84 84 74 33 4 nan nan nan nan nan nan nan nan nan nan nan nan nan nan nan nan nan nan nan nan nan nan nan nan nan nan nan nan nan nan nan nan nan nan
48 49 52 53 53 50 51 49 45 45 45 56 74 74 44 16 7 7 5 4 4 5 4 2 2 2 1 1 1 1 3 12 6 6 5 5 5 5 8 8 8 5 2 0 0 2 60 94 94 78 48 15 0 0 nan nan nan nan nan nan nan nan nan nan nan nan nan nan nan nan nan nan nan nan nan nan nan nan nan nan nan nan nan nan nan nan
35 37 44 42 42 41 39 35 30 30 34 48 59 59 35 11 6 6 6 5 5 5 4 4 4 2 1 0 nan nan 2 8 5 5 4 5 6 6 12 10 10 8 3 0 0 nan 3 33 33 112 78 13 0 0 nan nan nan nan nan nan nan nan nan nan nan nan nan nan nan nan nan nan nan nan nan nan nan nan nan nan nan nan nan nan nan nan
14 23 27 29 29 28 24 12 18 18 27 37 37 37 27 14 10 10 8 6 6 5 4 3 3 3 1 0 nan nan 5 5 4 4 3 4 4 4 4 5 5 10 4 1 1 nan nan nan nan 3 75 9 1 1 1 nan nan nan nan nan nan nan nan nan nan nan nan nan nan nan nan nan nan nan nan nan nan nan nan nan nan nan nan nan nan nan
4 5 5 7 7 8 6 3 8 8 18 25 27 27 20 13 10 10 12 9 9 6 4 3 3 3 2 nan nan nan 7 4 5 5 3 4 5 5 3 3 3 7 7 0 0 2 2 nan nan nan 1 31 6 6 2 3 3 11 8 nan nan nan nan nan nan nan nan nan nan nan nan nan nan nan nan nan nan nan nan nan nan nan nan nan nan nan
5 4 4 3 3 2 1 1 1 1 1 2 3 3 6 7 7 7 6 6 6 6 5 3 3 2 2 3 1 1 0 2 3 3 7 5 6 6 5 3 3 2 3 9 9 2 8 0 0 nan nan 10 15 15 11 8 8 31 62 40 40 8 nan nan nan nan nan nan nan nan nan nan nan nan nan nan nan nan nan nan nan nan nan nan nan nan
7 5 4 2 2 1 1 1 1 1 1 1 2 2 2 3 6 6 4 4 4 6 5 3 3 2 1 1 1 1 0 1 6 6 9 7 6 6 5 3 3 2 2 7 7 10 3 1 1 0 nan nan nan nan 13 12 12 14 50 31 31 16 nan nan nan nan nan nan nan nan nan nan nan nan nan nan nan nan nan nan nan nan nan nan nan nan
4 6 5 2 2 0 0 0 0 0 1 1 2 2 2 1 2 2 3 3 3 5 5 4 4 2 1 1 0 0 nan 0 5 5 7 7 7 7 5 3 3 2 2 3 3 9 3 1 1 nan nan nan nan nan nan 30 30 27 68 21 21 12 1 nan nan nan nan nan nan nan nan nan nan nan nan nan nan nan nan nan nan nan nan nan nan nan
3 4 2 1 1 0 0 0 0 0 0 1 1 1 1 1 1 1 2 3 3 3 4 4 4 4 3 1 0 0 nan nan 3 3 7 7 7 7 5 4 4 4 3 3 3 4 5 2 2 nan nan nan nan nan nan 23 23 57 41 30 30 25 9 nan nan nan nan nan nan nan nan nan nan nan nan nan nan nan nan nan nan nan nan nan nan nan
3 3 3 1 1 1 0 0 0 0 0 0 0 0 1 1 1 1 2 2 2 3 5 5 5 6 5 2 1 1 0 0 4 4 9 8 7 7 5 4 4 3 2 3 3 3 4 1 1 nan nan nan nan nan nan 3 3 27 36 24 24 17 3 nan nan nan nan nan nan nan nan nan nan nan nan nan nan nan nan nan nan nan nan nan nan nan
3 2 2 0 0 0 1 0 0 0 0 0 0 0 0 1 1 1 2 3 3 4 3 6 6 6 8 5 3 3 2 1 5 5 7 8 6 6 5 4 4 4 3 3 3 3 3 1 1 nan nan nan nan nan nan 1 1 11 11 nan nan 4 nan nan nan nan nan nan nan nan nan nan nan nan nan nan nan nan nan nan nan nan nan nan nan nan
2 2 1 1 1 0 0 0 0 0 1 0 0 0 1 1 2 2 2 3 3 4 2 2 2 3 7 8 4 4 4 4 5 5 6 5 6 6 4 4 4 4 4 3 3 3 4 2 2 nan nan nan nan nan nan nan nan nan nan nan nan nan nan nan nan nan nan nan nan nan nan nan nan nan nan nan nan nan nan nan nan nan nan nan nan nan
2 1 1 1 1 1 0 0 1 1 0 1 1 1 0 1 2 2 1 1 1 1 2 2 2 2 2 2 4 4 4 3 4 4 4 4 3 3 3 3 3 3 4 3 3 3 3 4 4 1 nan nan nan nan nan nan nan nan nan nan nan nan nan nan nan nan nan nan nan nan nan nan nan nan nan nan nan nan nan nan nan nan nan nan nan nan
3 1 1 3 3 1 0 1 1 1 0 1 2 2 1 0 1 1 1 0 0 0 1 1 1 0 0 1 3 3 3 1 3 3 3 3 2 2 3 3 3 3 3 2 2 3 4 3 3 1 nan nan nan nan nan nan nan nan nan nan nan nan nan nan nan nan nan nan nan nan nan nan nan nan nan nan nan nan nan nan nan nan nan nan nan nan
4 1 1 1 1 1 1 1 0 0 0 0 0 0 0 0 0 0 nan nan nan 0 0 0 0 0 0 1 5 5 8 2 10 10 3 3 2 2 3 3 3 3 3 2 2 2 3 2 2 0 nan nan nan nan nan nan nan nan nan nan nan nan nan nan nan nan nan nan nan nan nan nan nan nan nan nan nan nan nan nan nan nan nan nan nan nan
8 4 1 0 0 0 0 0 1 1 1 0 0 0 0 0 0 0 0 0 0 nan 0 0 0 0 1 6 12 12 10 6 5 5 3 3 1 1 1 2 2 3 3 2 2 2 2 1 1 0 nan nan nan nan nan nan nan nan nan nan nan nan nan nan nan nan nan nan nan nan nan nan nan nan nan nan nan nan nan nan nan nan nan nan nan nan
4 2 1 1 1 0 1 1 1 1 0 0 0 0 0 0 1 1 1 0 0 0 0 0 0 0 1 1 2 2 2 2 3 3 3 2 1 1 1 2 2 2 3 2 2 2 1 0 0 0 nan nan nan nan nan nan nan nan nan nan nan nan nan nan nan nan nan nan nan nan nan nan nan nan nan nan nan nan nan nan nan nan nan nan nan nan
4 1 1 0 0 0 1 0 0 0 0 0 0 0 nan 0 2 2 1 0 0 0 0 0 0 0 nan nan 0 0 nan 1 0 0 1 3 2 2 1 1 1 2 2 3 3 2 0 nan nan nan nan nan nan nan nan nan nan nan nan nan nan nan nan nan nan nan nan nan nan nan nan nan nan nan nan nan nan nan nan nan nan nan nan nan nan nan
1 1 1 0 0 0 0 0 0 0 0 0 0 0 nan 0 2 2 1 0 0 0 0 0 0 0 nan nan nan nan nan nan nan nan 0 1 2 2 0 1 1 2 4 4 4 2 1 nan nan nan nan nan nan nan nan nan nan nan nan nan nan nan nan nan nan nan nan nan nan nan nan nan nan nan nan nan nan nan nan nan nan nan nan nan nan nan
1 1 0 0 0 0 0 0 nan nan nan 0 nan nan nan 0 0 0 1 0 0 0 0 0 0 nan nan nan nan nan nan nan nan nan nan 0 nan nan nan nan nan 0 1 1 1 0 0 0 0 nan nan nan nan nan nan nan nan nan nan nan nan nan nan nan nan nan nan nan nan nan nan nan nan nan nan nan nan nan nan nan nan nan nan nan nan nan
1 0 0 0 0 nan nan 0 nan nan nan nan nan nan nan 0 0 0 0 0 0 0 0 0 0 nan 0 nan nan nan nan nan nan nan nan nan 0 0 nan nan nan nan nan nan nan nan nan nan nan nan nan nan nan nan nan nan nan nan nan nan nan nan nan nan nan nan nan nan nan nan nan nan nan nan nan nan nan nan nan nan nan nan nan nan nan nan
2 1 0 0 0 0 nan 0 nan nan nan nan nan nan nan 0 1 1 0 0 0 0 0 0 0 0 0 nan nan nan nan nan nan nan nan nan 0 0 nan nan nan nan 0 0 0 nan nan nan nan nan nan nan 0 0 0 nan nan nan nan nan nan nan nan nan nan nan nan nan nan nan nan nan nan nan nan nan nan nan nan nan nan nan nan nan nan nan
1 0 1 0 0 0 0 0 nan nan nan nan nan nan nan 1 7 7 0 0 0 0 0 0 0 0 nan nan nan nan 0 0 nan nan nan nan nan nan 0 nan nan nan nan nan nan nan nan nan nan nan nan nan nan nan 0 nan nan nan nan nan nan nan nan nan nan nan nan nan nan nan nan nan nan nan nan nan nan nan nan nan nan nan nan nan nan nan
1 0 1 0 0 0 0 0 0 0 nan nan nan nan nan nan 1 1 1 0 0 0 0 0 0 0 0 nan nan nan nan nan nan nan nan nan nan nan 0 0 0 1 nan nan nan nan nan nan nan nan 1 nan nan nan 0 nan nan nan nan nan nan nan nan nan nan nan nan nan nan nan nan nan nan nan nan nan nan nan nan nan nan nan nan 0 0 nan
1 1 1 0 0 0 0 0 0 0 0 0 0 0 nan nan nan nan 0 0 0 0 0 0 0 0 0 0 nan nan 0 nan nan nan nan nan nan nan 0 1 1 1 1 0 0 nan nan nan nan nan nan 1 1 1 nan 0 0 nan nan nan nan nan nan nan nan nan nan nan nan nan nan nan nan nan nan nan nan nan nan nan nan nan nan nan nan nan
CIN
-0 -0 -0 -0 -0 -0 -0 -0 -0 -0 -0 -0 -0 -0 -0 -0 -0 -0 -0 -0 -0 -0 -0 -2 -2 -0 -0 -0 -0 -0 -0 -0 -0 -0 -0 -0 -0 -0 -0 -2 -2 -34 nan nan nan nan -0 -0 -0 -0 -0 nan nan nan nan nan nan nan nan nan nan nan nan nan nan nan nan nan nan nan -47 -4 -0 -0 -0 -0 -0 -0 -0 -0 -0 -0 -0 -67 -67 -89
-0 -0 -0 -0 -0 -0 -0 -0 -0 -0 -0 -0 -0 -0 -0 -0 -0 -0 -0 -0 -0 -0 -0 -0 -0 -0 -0 -0 -0 -0 -0 -0 -0 -0 -0 -0 -0 -0 -0 -0 -0 -37 nan nan nan nan -0 -0 -0 -0 -0 nan nan nan nan nan nan nan nan nan nan nan nan nan nan nan nan nan nan nan -53 -4 -0 -0 -0 -0 -0 -0 -0 -0 -0 -0 -64 -74 -74 -78
-0 -0 -0 -0 -0 -0 -0 -0 -0 -0 -0 -0 -0 -0 -0 -0 -0 -0 -0 -0 -0 -0 -0 -0 -0 -0 -0 -0 -0 -0 -0 -0 -0 -0 -0 -0 -0 -0 -0 -0 -0 -33 nan nan nan nan -0 -1 -1 nan -0 nan nan nan nan nan nan nan nan nan nan nan nan nan nan nan nan nan nan nan nan -46 -1 -1 -1 -0 -0 -0 -1 -52 -52 -61 -70 -71 -71 -98
-0 -0 -0 -0 -0 -0 -0 -0 -0 -0 -0 -0 -0 -0 -0 -0 -0 -0 -0 -0 -0 -0 -0 -0 -0 -0 -0 -0 -0 -0 -0 -0 -0 -0 -0 -0 -0 -0 -0 -0 -0 -32 nan nan nan nan -0 -1 -1 nan -0 nan nan nan nan nan nan nan nan nan nan nan nan nan nan nan nan nan nan nan nan nan -5 -5 -5 -4 -47 -47 -67 -77 -77 -82 -55 -70 -70 -115
-0 -0 -0 -0 -0 -0 -0 -0 -0 -0 -0 -0 -0 -0 -0 -0 -0 -0 -0 -0 -0 -0 -0 -0 -0 -0 -0 -0 -0 -0 -0 -0 -0 -0 -0 -0 -0 -0 -0 -0 -0 -28 nan nan nan nan -1 -0 -0 -3 -0 nan nan nan nan nan nan nan nan nan nan nan nan nan nan nan nan nan nan nan nan nan nan nan nan nan nan nan -80 -73 -73 -61 -39 -67 -67 -102
-0 -0 -0 -0 -0 -0 -0 -0 -0 -0 -0 -0 -0 -0 -0 -0 -0 -0 -0 -0 -0 -0 -0 -0 -0 -0 -0 -0 -0 -0 -0 -0 -0 -0 -0 -0 -0 -0 -0 -0 -0 -21 nan nan nan nan nan -0 -0 -1 -0 nan nan nan nan nan nan nan nan nan nan nan nan nan nan nan nan nan nan nan nan nan nan nan nan nan nan nan nan -80 -80 -62 -54 -73 -73 -89
-0 -0 -0 -0 -0 -0 -0 -0 -0 -0 -0 -0 -0 -0 -0 -0 -0 -0 -0 -0 -0 -0 -0 -0 -0 -0 -0 -0 -0 -0 -0 -0 -0 -0 -0 -0 -0 -0 -0 -0 -0 -32 nan nan nan nan nan -0 -0 -1 -0 nan nan nan nan nan nan nan nan nan nan nan nan nan nan nan nan nan nan nan nan nan nan nan nan nan nan nan nan -117 -117 -84 -0 -79 -79 -79
-0 -0 -0 -0 -0 -0 -0 -0 -0 -0 -0 -0 -0 -0 -0 -0 -0 -0 -0 -1 -1 -0 -0 -0 -0 -0 -0 -0 -0 -0 -0 -0 -0 -0 -0 -0 -0 -0 -0 -0 -0 -0 -60 nan nan nan nan -0 -0 -0 -1 nan nan nan nan nan nan nan nan nan nan nan nan nan nan nan nan nan nan nan nan nan nan nan nan nan nan nan nan nan nan -145 -118 -112 -112 -78
-0 -0 -0 -0 -0 -0 -0 -0 -0 -0 -0 -0 -0 -0 -0 -0 -0 -0 -0 -0 -0 -0 -0 -0 -0 -0 -0 -0 -0 -0 -0 -0 -0 -0 -0 -0 -0 -0 -0 -0 -0 -2 -46 nan nan nan nan -0 -0 -0 -0 nan nan nan nan nan nan nan nan nan nan nan nan nan nan nan nan nan nan nan nan nan nan nan nan nan nan nan nan nan nan nan nan -170 -170 -130
-0 -0 -0 -0 -0 -0 -0 -0 -0 -0 -0 -0 -0 -0 -0 -0 -0 -0 -0 -0 -0 -0 -0 -0 -0 -0 -0 -0 -0 -0 -0 -0 -0 -0 -0 -0 -0 -0 -0 -0 -0 -0 nan nan nan nan nan -0 -0 -0 -0 nan nan nan nan nan nan nan nan nan nan nan nan nan nan nan nan nan nan nan nan nan nan nan nan nan nan nan nan nan nan nan nan nan nan nan
-0 -0 -0 -0 -0 -0 -0 -0 -0 -0 -0 -0 -0 -0 -0 -0 -0 -0 -0 -0 -0 -0 -0 -0 -0 -0 -0 -0 -0 -0 -0 -0 -0 -0 -0 -0 -0 -0 -0 -0 -0 -0 nan nan nan nan nan -0 -0 -0 -1 nan nan nan nan nan nan nan nan nan nan nan nan nan nan nan nan nan nan nan nan nan nan nan nan nan nan nan nan nan nan nan nan nan nan nan
-0 -0 -0 -0 -0 -0 -0 -0 -0 -0 -0 -0 -0 -0 -0 -0 -0 -0 -0 -0 -0 -0 -0 -0 -0 -0 -0 -0 -0 -0 -0 -0 -0 -0 -0 -0 -0 -0 -0 -0 -0 -1 -17 -35 -35 nan -1 -0 -0 -1 nan nan nan nan nan nan nan nan nan nan nan nan nan nan nan nan nan nan nan nan nan nan nan nan nan nan nan nan nan nan nan nan nan nan nan nan
-0 -0 -0 -0 -0 -0 -0 -0 -0 -0 -0 -0 -0 -0 -0 -0 -0 -0 -0 -0 -0 -0 -0 -0 -0 -0 -0 -0 -0 -0 -0 -0 -0 -0 -0 -0 -0 -0 -0 -0 -0 -0 -4 -7 -7 -22 -1 -1 -1 -2 nan nan nan nan nan nan nan nan nan nan nan nan nan nan nan nan nan nan nan nan nan nan nan nan nan nan nan nan nan nan nan nan nan nan nan nan
-0 -0 -0 -0 -0 -0 -0 -0 -0 -0 -0 -0 -0 -0 -0 -0 -0 -0 -0 -0 -0 -0 -0 -0 -0 -0 -0 -0 -0 -0 -0 -0 -0 -0 -0 -0 -0 -0 -0 -0 -0 -1 -2 -0 -0 -1 -1 -1 -1 -1 nan nan nan nan nan nan nan nan nan nan nan nan nan nan nan nan nan nan nan nan nan nan nan nan nan nan nan nan nan nan nan nan nan nan nan nan
-0 -0 -0 -0 -0 -0 -0 -0 -0 -0 -0 -0 -0 -0 -0 -0 -0 -0 -0 -0 -0 -0 -0 -0 -0 -0 -0 -0 -0 -0 -0 -0 -0 -0 -0 -0 -0 -0 -0 -0 -0 -3 -2 -1 -1 -1 -1 -1 -1 -0 -1 -1 nan nan nan nan nan nan nan nan nan nan nan nan nan nan nan nan nan nan nan nan nan nan nan nan nan nan nan nan nan nan nan nan nan nan
-0 -0 -0 -0 -0 -0 -0 -0 -0 -0 -0 -0 -0 -0 -0 -0 -0 -0 -0 -0 -0 -0 -0 -0 -0 -0 -0 -0 -0 -0 -0 -0 -0 -0 -0 -0 -0 -0 -0 -0 -0 -1 -1 -2 -2 -0 -0 -0 -0 -0 -0 nan nan nan nan nan nan nan nan nan nan nan nan nan nan nan nan nan nan nan nan nan nan nan nan nan nan nan nan nan nan nan nan nan nan nan
-0 -0 -0 -0 -0 -0 -0 -0 -0 -0 -0 -0 -0 -0 -0 -0 -0 -0 -0 -0 -0 -0 -0 -0 -0 -0 -0 -0 -0 -0 -0 -0 -0 -0 -0 -0 -0 -0 -0 -0 -0 -1 -0 -4 -4 -0 -0 -0 -0 -0 -0 nan nan nan nan nan nan nan nan nan nan nan nan nan nan nan nan nan nan nan nan nan nan nan nan nan nan nan nan nan nan nan nan nan nan nan
-0 -0 -0 -0 -0 -0 -0 -0 -0 -0 -0 -0 -0 -0 -0 -0 -0 -0 -0 -0 -0 -0 -0 -0 -0 -0 -0 -0 -0 -0 -0 -0 -0 -0 -0 -0 -0 -0 -0 -0 -0 -1 -2 -3 -3 -1 -0 -0 -0 -0 -1 nan nan nan nan nan nan nan nan nan nan nan nan nan nan nan nan nan nan nan nan nan nan nan nan nan nan nan nan nan nan nan nan nan nan nan
-0 -0 -0 -0 -0 -0 -0 -0 -0 -0 -0 -0 -0 -0 -0 -0 -0 -0 -0 -0 -0 -0 -0 -0 -0 -0 -0 -0 -0 -0 -1 -0 -0 -0 -0 -0 -0 -0 -0 -0 -0 -1 -3 -6 -6 -2 -0 -0 -0 -2 nan nan nan nan nan nan nan nan nan nan nan nan nan nan nan nan nan nan nan nan nan nan nan nan nan nan nan nan nan nan nan nan nan nan nan nan
-0 -0 -0 -0 -0 -0 -0 -0 -0 -0 -0 -0 -0 -0 -0 -0 -0 -0 -0 -0 -0 -0 -0 -0 -0 -0 -0 -0 -0 -0 -0 -0 -0 -0 -0 -0 -0 -0 -0 -0 -0 -0 -2 -8 -8 -2 -1 -0 -0 -1 nan nan nan nan nan nan nan nan nan nan nan nan nan nan nan nan nan nan nan nan nan nan nan nan nan nan nan nan nan nan nan nan nan nan nan nan
-0 -0 -0 -0 -0 -0 -0 -0 -0 -0 -0 -0 -0 -0 -0 -0 -0 -0 -0 -0 -0 -0 -0 -0 -0 -0 -0 -0 nan nan -0 -0 -0 -0 -0 -0 -0 -0 -0 -0 -0 -0 -3 -8 -8 -7 -5 -1 -1 -0 nan nan nan nan nan nan nan nan nan nan nan nan nan nan nan nan nan nan nan nan nan nan nan nan nan nan nan nan nan nan nan nan nan nan nan nan
-0 -0 -0 -0 -0 -0 -0 -0 -0 -0 -0 -0 -0 -0 -0 -0 -0 -0 -0 -0 -0 -0 -0 -0 -0 -0 -0 -0 nan nan -0 -0 -0 -0 -0 -0 -0 -0 -0 -0 -0 -0 -2 -5 -5 -5 -3 -1 -1 -0 nan nan nan nan nan nan nan nan nan nan nan nan nan nan nan nan nan nan nan nan nan nan nan nan nan nan nan nan nan nan nan nan nan nan nan nan
-0 -0 -0 -0 -0 -0 -0 -0 -0 -0 -0 -0 -0 -0 -0 -0 -0 -0 -0 -0 -0 -0 -0 -0 -0 -0 -0 nan nan nan -0 -0 -0 -0 -0 -0 -0 -0 -0 -0 -0 -0 -1 -2 -2 -4 -2 -0 -0 -0 nan nan nan nan nan nan nan nan nan nan nan nan nan nan nan nan nan nan nan nan nan nan nan nan nan nan nan nan nan nan nan nan nan nan nan nan
-0 -0 -0 -0 -0 -0 -0 -0 -0 -0 -0 -0 -0 -0 -0 -0 -0 -0 -0 -0 -0 -0 -0 -0 -0 -0 -0 -0 -1 -1 -0 -0 -0 -0 -0 -0 -0 -0 -0 -0 -0 -0 -0 -2 -2 -4 -1 -0 -0 -1 nan nan nan nan nan nan nan nan nan nan nan nan nan nan nan nan nan nan nan nan nan nan nan nan nan nan nan nan nan nan nan nan nan nan nan nan
-0 -0 -0 -0 -0 -0 -0 -0 -0 -0 -0 -0 -0 -0 -0 -0 -0 -0 -0 -0 -0 -0 -0 -0 -0 -0 nan -0 -0 -0 -0 -0 -0 -0 -0 -0 -0 -0 -0 -0 -0 -0 -0 -2 -2 -5 -1 -0 -0 -0 -0 nan nan nan nan nan nan nan nan nan nan nan nan nan nan nan nan nan nan nan nan nan nan nan nan nan nan nan nan nan nan nan nan nan nan nan
-0 -0 -0 -0 -0 -0 -0 -0 -0 -0 -0 -0 -0 -0 -0 -0 -0 -0 -0 -0 -0 -0 -0 -0 -0 -0 -0 -0 -0 -0 -0 -0 -0 -0 -0 -0 -0 -0 -0 -0 -0 -0 -0 -1 -1 -4 -0 -0 -0 -0 -0 nan nan nan nan nan nan nan nan nan nan nan nan nan nan nan nan nan nan nan nan nan nan nan nan nan nan nan nan nan nan nan nan nan nan nan
-0 -0 -0 -0 -0 -0 -0 -0 -0 -0 -0 -0 -0 -0 -0 -0 -0 -0 -0 -0 -0 -0 -0 -0 -0 -0 -0 -0 -0 -0 -0 -0 -0 -0 -0 -0 -0 -0 -0 -0 -0 -0 -0 -0 -0 -3 -2 -1 -1 -0 -0 -0 nan nan nan nan nan nan nan nan nan nan nan nan nan nan nan nan nan nan nan nan nan nan nan nan nan nan nan nan nan nan nan nan nan nan
-0 -0 -0 -0 -0 -0 -0 -0 -0 -0 -0 -0 -0 -0 -0 -0 -0 -0 -0 -0 -0 -0 -0 -0 -0 -0 -0 -0 -0 -0 -0 -0 -0 -0 -0 -0 -0 -0 -0 -0 -0 -0 -0 -0 -0 -18 -7 -2 -2 -0 -0 -0 -0 -0 nan nan nan nan nan nan nan nan nan nan nan nan nan nan nan nan nan nan nan nan nan nan nan nan nan nan nan nan nan nan nan nan
-0 -0 -0 -0 -0 -0 -0 -0 -0 -0 -0 -0 -0 -0 -0 -0 -0 -0 -0 -0 -0 -0 -0 -0 -0 -0 -0 -0 nan nan -0 -0 -0 -0 -0 -0 -0 -0 -0 -0 -0 -0 -0 -0 -0 nan -18 -7 -7 -2 -0 -0 -0 -0 nan nan nan nan nan nan nan nan nan nan nan nan nan nan nan nan nan nan nan nan nan nan nan nan nan nan nan nan nan nan nan nan
-0 -0 -0 -0 -0 -0 -0 -0 -0 -0 -0 -0 -0 -0 -0 -0 -0 -0 -0 -0 -0 -0 -0 -0 -0 -0 -0 -0 nan nan -0 -0 -0 -0 -0 -0 -0 -0 -0 -0 -0 -0 -0 -0 -0 nan nan nan nan -25 -0 -25 -0 -0 -0 nan nan nan nan nan nan nan nan nan nan nan nan nan nan nan nan nan nan nan nan nan nan nan nan nan nan nan nan nan nan nan
-0 -0 -0 -0 -0 -0 -0 -0 -0 -0 -0 -0 -0 -0 -0 -0 -0 -0 -0 -0 -0 -0 -0 -0 -0 -0 -0 nan nan nan -0 -0 -0 -0 -0 -0 -0 -0 -0 -0 -0 -0 -0 -0 -0 -26 -0 nan nan nan -35 -1 -0 -0 -0 -0 -0 -0 -0 nan nan nan nan nan nan nan nan nan nan nan nan nan nan nan nan nan nan nan nan nan nan nan nan nan nan nan
-0 -0 -0 -0 -0 -0 -0 -0 -0 -0 -0 -0 -0 -0 -0 -0 -0 -0 -0 -0 -0 -0 -0 -0 -0 -0 -0 -0 -0 -0 -0 -0 -0 -0 -0 -0 -0 -0 -0 -0 -0 -0 -0 -0 -0 -0 -0 -37 -37 nan nan -17 -0 -0 -0 -1 -1 -0 -0 -0 -0 -0 nan nan nan nan nan nan nan nan nan nan nan nan nan nan nan nan nan nan nan nan nan nan nan nan
-0 -0 -0 -0 -0 -0 -0 -0 -0 -0 -0 -0 -0 -0 -0 -0 -0 -0 -0 -0 -0 -0 -0 -0 -0 -0 -0 -0 -0 -0 -0 -0 -0 -0 -0 -0 -0 -0 -0 -0 -0 -0 -0 -0 -0 -0 -0 -0 -0 -0 nan nan nan nan -1 -1 -1 -1 -0 -4 -4 -0 nan nan nan nan nan nan nan nan nan nan nan nan nan nan nan nan nan nan nan nan nan nan nan nan
-0 -0 -0 -0 -0 -0 -0 -0 -0 -0 -0 -0 -0 -0 -0 -0 -0 -0 -0 -0 -0 -0 -0 -0 -0 -0 -0 -0 -0 -0 nan -0 -0 -0 -0 -0 -0 -0 -0 -0 -0 -0 -0 -0 -0 -0 -0 -0 -0 nan nan nan nan nan nan -0 -0 -1 -0 -11 -11 -0 -0 nan nan nan nan nan nan nan nan nan nan nan nan nan nan nan nan nan nan nan nan nan nan nan
-0 -0 -0 -0 -0 -0 -0 -0 -0 -0 -0 -0 -0 -0 -0 -0 -0 -0 -0 -0 -0 -0 -0 -0 -0 -0 -0 -0 -0 -0 nan nan -0 -0 -0 -0 -0 -0 -0 -0 -0 -0 -0 -0 -0 -0 -0 -0 -0 nan nan nan nan nan nan -1 -1 -0 -2 -10 -10 -0 -0 nan nan nan nan nan nan nan nan nan nan nan nan nan nan nan nan nan nan nan nan nan nan nan
-0 -0 -0 -0 -0 -0 -0 -0 -0 -0 -0 -0 -0 -0 -0 -0 -0 -0 -0 -0 -0 -0 -0 -0 -0 -0 -0 -0 -0 -0 -0 -0 -0 -0 -0 -0 -0 -0 -0 -0 -0 -0 -0 -0 -0 -0 -0 -0 -0 nan nan nan nan nan nan -25 -25 -2 -1 -12 -12 -27 -40 nan nan nan nan nan nan nan nan nan nan nan nan nan nan nan nan nan nan nan nan nan nan nan
-0 -0 -0 -0 -0 -0 -0 -0 -0 -0 -0 -0 -0 -0 -0 -0 -0 -0 -0 -0 -0 -0 -0 -0 -0 -0 -0 -0 -0 -0 -0 -0 -0 -0 -0 -0 -0 -0 -0 -0 -0 -0 -0 -0 -0 -0 -0 -0 -0 nan nan nan nan nan nan -32 -32 -16 -20 nan nan -50 nan nan nan nan nan nan nan nan nan nan nan nan nan nan nan nan nan nan nan nan nan nan nan nan
-0 -0 -0 -0 -0 -0 -0 -0 -0 -0 -0 -0 -0 -0 -0 -0 -0 -0 -0 -0 -0 -0 -0 -0 -0 -0 -0 -0 -0 -0 -0 -0 -0 -0 -0 -0 -0 -0 -0 -0 -0 -0 -0 -0 -0 -0 -0 -0 -0 nan nan nan nan nan nan nan nan nan nan nan nan nan nan nan nan nan nan nan nan nan nan nan nan nan nan nan nan nan nan nan nan nan nan nan nan nan
-0 -0 -0 -0 -0 -0 -0 -0 -0 -0 -0 -0 -0 -0 -0 -0 -0 -0 -0 -0 -0 -0 -0 -0 -0 -0 -0 -0 -0 -0 -0 -0 -0 -0 -0 -0 -0 -0 -0 -0 -0 -0 -0 -0 -0 -0 -0 -0 -0 -0 nan nan nan nan nan nan nan nan nan nan nan nan nan nan nan nan nan nan nan nan nan nan nan nan nan nan nan nan nan nan nan nan nan nan nan nan
-0 -0 -0 -0 -0 -0 -0 -0 -0 -0 -0 -0 -0 -0 -0 -0 -0 -0 -0 -0 -0 -0 -0 -0 -0 -0 -0 -0 -0 -0 -0 -0 -0 -0 -0 -0 -0 -0 -0 -0 -0 -0 -0 -0 -0 -0 -0 -0 -0 -0 nan nan nan nan nan nan nan nan nan nan nan nan nan nan nan nan nan nan nan nan nan nan nan nan nan nan nan nan nan nan nan nan nan nan nan nan
-0 -0 -0 -0 -0 -0 -0 -0 -0 -0 -0 -0 -0 -0 -0 -0 -0 -0 nan nan nan -0 -0 -0 -0 -0 -0 -0 -0 -0 -0 -0 -0 -0 -0 -0 -0 -0 -0 -0 -0 -0 -0 -0 -0 -0 -0 -0 -0 -0 nan nan nan nan nan nan nan nan nan nan nan nan nan nan nan nan nan nan nan nan nan nan nan nan nan nan nan nan nan nan nan nan nan nan nan nan
-0 -0 -0 -0 -0 -0 -0 -0 -0 -0 -0 -0 -0 -0 -0 -0 -0 -0 -0 -0 -0 nan -0 -0 -0 -0 -0 -0 -0 -0 -0 -0 -0 -0 -0 -0 -0 -0 -0 -0 -0 -0 -0 -0 -0 -0 -0 -0 -0 -0 nan nan nan nan nan nan nan nan nan nan nan nan nan nan nan nan nan nan nan nan nan nan nan nan nan nan nan nan nan nan nan nan nan nan nan nan
-0 -0 -0 -0 -0 -0 -0 -0 -0 -0 -0 -0 -0 -0 -0 -0 -0 -0 -0 -0 -0 -0 -0 -0 -0 -0 -0 -0 -0 -0 -1 -1 -1 -1 -0 -0 -0 -0 -0 -0 -0 -0 -0 -0 -0 -0 -0 -0 -0 -0 nan nan nan nan nan nan nan nan nan nan nan nan nan nan nan nan nan nan nan nan nan nan nan nan nan nan nan nan nan nan nan nan nan nan nan nan
-0 -0 -0 -0 -0 -0 -0 -0 -0 -0 -0 -0 -0 -0 nan -0 -0 -0 -0 -0 -0 -0 -0 -0 -0 -0 nan nan -0 -0 nan -1 -1 -1 -1 -0 -0 -0 -0 -0 -0 -0 -0 -0 -0 -0 -0 nan nan nan nan nan nan nan nan nan nan nan nan nan nan nan nan nan nan nan nan nan nan nan nan nan nan nan nan nan nan nan nan nan nan nan nan nan nan nan
-0 -0 -0 -0 -0 -0 -0 -0 -0 -0 -0 -0 -0 -0 nan -0 -0 -0 -0 -0 -0 -0 -0 -0 -0 -0 nan nan nan nan nan nan nan nan -2 -0 -0 -0 -0 -0 -0 -0 -0 -0 -0 -0 -0 nan nan nan nan nan nan nan nan nan nan nan nan nan nan nan nan nan nan nan nan nan nan nan nan nan nan nan nan nan nan nan nan nan nan nan nan nan nan nan
-0 -0 -0 -0 -0 -0 -0 -0 nan nan nan -0 nan nan nan -0 -0 -0 -0 -0 -0 -0 -0 -0 -0 nan nan nan nan nan nan nan nan nan nan -2 nan nan nan nan nan -0 -0 -0 -0 -0 -0 -0 -0 nan nan nan nan nan nan nan nan nan nan nan nan nan nan nan nan nan nan nan nan nan nan nan nan nan nan nan nan nan nan nan nan nan nan nan nan nan
-0 -0 -0 -0 -0 nan nan -0 nan nan nan nan nan nan nan -0 -0 -0 -0 -0 -0 -0 -0 -0 -0 nan -0 nan nan nan nan nan nan nan nan nan -1 -1 nan nan nan nan nan nan nan nan nan nan nan nan nan nan nan nan nan nan nan nan nan nan nan nan nan nan nan nan nan nan nan nan nan nan nan nan nan nan nan nan nan nan nan nan nan nan nan nan
-0 -0 -0 -0 -0 -0 nan -0 nan nan nan nan nan nan nan -0 -0 -0 -0 -0 -0 -0 -0 -0 -0 -0 -0 nan nan nan nan nan nan nan nan nan -0 -0 nan nan nan nan -1 -1 -1 nan nan nan nan nan nan nan -0 -0 -0 nan nan nan nan nan nan nan nan nan nan nan nan nan nan nan nan nan nan nan nan nan nan nan nan nan nan nan nan nan nan nan
-0 -0 -0 -0 -0 -0 -0 -0 nan nan nan nan nan nan nan -0 -0 -0 -0 -0 -0 -0 -0 -0 -0 -0 nan nan nan nan -0 -0 nan nan nan nan nan nan -0 nan nan nan nan nan nan nan nan nan nan nan nan nan nan nan -0 nan nan nan nan nan nan nan nan nan nan nan nan nan nan nan nan nan nan nan nan nan nan nan nan nan nan nan nan nan nan nan
-0 -0 -0 -0 -0 -0 -0 -0 -0 -0 nan nan nan nan nan nan -0 -0 -0 -0 -0 -0 -0 -0 -0 -0 -0 nan nan nan nan nan nan nan nan nan nan nan -0 -0 -0 -1 nan nan nan nan nan nan nan nan -0 nan nan nan -0 nan nan nan nan nan nan nan nan nan nan nan nan nan nan nan nan nan nan nan nan nan nan nan nan nan nan nan nan -0 -0 nan
-0 -0 -0 -0 -0 -0 -0 -0 -0 -0 -0 -0 -0 -0 nan nan nan nan -0 -0 -0 -0 -0 -0 -0 -0 -0 -0 nan nan -0 nan nan nan nan nan nan nan -0 -0 -0 -0 -0 -1 -1 nan nan nan nan nan nan -0 -0 -0 nan -0 -0 nan nan nan nan nan nan nan nan nan nan nan nan nan nan nan nan nan nan nan nan nan nan nan nan nan nan nan nan nan
Wind_Speed
7 8 9 11 11 10 9 11 12 11 10 10 9 9 9 10 10 11 12 12 11 11 10 9 9 10 11 13 15 16 18 17 16 15 14 15 15 14 13 8 4 4 7 7 9 11 13 14 15 14 12 11 13 15 15 15 16 16 17 17 19 21 22 24 26 27 29 30 32 33 34 35 37 38 35 33 32 31 32 33 33 32 29 26 25 24
8 8 8 10 11 11 9 11 11 11 10 11 10 10 10 11 11 10 9 10 10 10 9 9 9 9 10 12 14 16 17 17 16 15 14 14 14 14 13 8 3 4 6 7 7 9 12 13 14 14 12 10 12 15 15 15 16 16 16 16 17 19 19 20 21 22 25 28 31 33 35 36 38 38 36 34 33 32 31 31 30 29 26 24 23 23
8 7 7 8 9 10 8 10 11 11 11 11 11 11 13 13 12 10 8 8 8 8 8 8 8 9 9 10 13 15 16 16 16 15 14 14 14 14 12 8 3 3 6 6 6 8 11 13 14 14 12 10 11 14 14 15 16 16 16 15 16 17 19 19 19 19 21 25 28 31 34 35 36 36 35 34 33 31 30 28 27 25 23 22 21 22
8 7 7 6 7 8 9 9 10 10 9 10 11 12 14 12 10 9 8 8 7 7 8 9 9 8 8 8 10 13 15 15 15 15 15 14 14 14 13 9 4 2 6 5 5 7 11 13 13 13 12 9 10 12 14 14 15 16 16 16 16 17 19 20 20 19 19 21 25 29 31 32 32 32 33 32 31 29 28 27 26 24 20 19 20 21
8 7 7 6 6 7 8 9 9 9 8 9 10 11 11 10 9 8 8 8 8 8 8 8 8 8 7 7 9 11 13 14 15 15 15 15 14 13 13 10 5 1 5 5 4 6 10 13 14 13 11 9 9 11 13 14 15 16 16 16 16 18 20 21 21 20 19 19 22 25 28 29 29 29 30 30 29 27 25 24 25 23 19 18 19 21
8 7 6 6 5 6 6 7 7 7 7 8 9 9 9 8 8 7 8 8 8 8 8 8 8 8 8 8 9 10 12 13 14 15 15 14 14 13 12 10 5 1 5 5 3 5 10 12 13 13 11 9 9 10 12 13 14 15 15 15 16 17 19 21 22 21 20 19 19 22 24 26 27 27 27 28 27 26 24 22 23 23 20 18 19 21
7 6 6 5 5 5 5 6 6 7 7 7 8 8 8 8 7 7 7 7 7 7 7 7 8 8 9 9 9 9 10 11 13 14 14 13 12 12 11 10 6 0 5 5 3 4 9 12 13 12 10 8 8 10 11 13 14 14 15 15 15 16 18 20 21 22 21 19 18 19 21 23 25 26 26 26 27 26 24 21 21 21 20 19 19 20
7 7 6 6 5 5 5 5 5 6 7 7 7 8 8 7 7 7 8 7 7 7 7 7 7 8 8 8 7 6 6 8 9 10 11 10 9 9 10 9 6 2 4 5 3 2 8 12 13 12 10 8 8 9 11 12 13 14 15 15 15 16 17 18 20 22 22 21 20 19 19 20 22 24 24 25 26 26 24 20 19 19 20 20 19 20
8 7 6 6 6 6 6 5 5 6 7 7 7 7 8 7 7 7 7 7 6 6 6 6 7 7 8 7 6 5 5 6 7 7 7 5 5 6 8 8 6 2 5 5 3 2 7 11 13 12 10 8 8 9 10 11 12 14 16 16 16 16 16 17 19 21 23 23 22 21 19 20 21 22 23 23 25 25 23 19 18 18 20 20 19 19
8 8 6 6 5 5 6 5 5 6 7 7 7 6 6 7 7 8 8 7 6 5 5 6 7 7 8 7 6 5 5 6 8 8 6 5 5 7 8 9 6 2 4 5 3 1 6 11 13 13 11 8 8 9 10 11 12 14 16 17 17 17 16 16 17 19 21 23 23 23 21 21 21 21 22 22 23 24 23 19 17 17 19 20 20 19
7 7 6 5 5 5 5 5 5 6 7 7 6 6 5 6 7 7 9 8 7 7 6 6 6 7 7 7 6 6 5 5 6 6 5 5 6 8 9 9 8 4 4 4 3 0 4 10 13 13 11 8 7 8 10 11 12 13 15 17 18 18 17 17 17 17 19 21 22 23 23 22 22 22 22 22 23 24 23 20 17 16 17 19 20 19
6 5 4 4 5 5 5 5 5 5 6 6 6 5 5 6 6 6 8 8 8 8 8 7 7 7 6 7 6 6 5 4 4 3 3 4 5 6 7 7 6 4 4 4 3 1 4 9 11 11 8 6 6 8 10 11 12 13 14 16 17 18 18 17 17 16 17 19 20 21 23 23 23 23 23 23 24 24 23 20 18 16 16 17 19 19
6 5 4 5 5 5 5 5 5 5 5 5 5 6 6 6 6 6 6 7 8 8 8 8 7 7 7 7 6 5 4 4 3 3 3 3 3 4 4 4 4 4 4 3 3 1 3 6 8 8 5 3 3 6 9 11 12 13 14 15 17 18 19 18 17 16 16 16 17 19 21 23 24 25 25 25 25 25 24 22 19 16 15 16 17 19
6 5 4 5 5 5 4 5 5 5 5 5 5 6 6 6 6 7 6 7 7 7 7 8 8 7 6 6 5 5 4 4 3 2 2 3 3 3 3 3 3 4 4 3 3 2 2 4 5 5 4 2 1 3 6 10 12 14 14 15 17 18 19 19 18 17 16 15 16 17 19 21 23 24 25 25 25 25 25 24 21 18 16 15 16 18
6 6 5 5 5 5 4 5 5 5 5 5 6 6 6 6 7 7 7 7 7 7 7 7 8 7 4 3 4 6 7 6 5 4 3 3 3 3 4 4 4 4 4 3 3 2 2 3 4 4 3 3 2 1 2 6 11 14 14 15 17 18 20 20 19 18 17 16 16 16 16 18 20 21 22 23 24 25 25 24 23 20 18 16 16 18
6 6 6 6 5 5 4 4 5 6 6 6 6 6 6 7 7 7 7 7 7 6 6 7 7 6 4 1 4 6 7 7 6 5 6 5 4 3 4 4 4 4 4 4 3 2 2 2 3 4 3 3 2 1 1 4 8 12 13 15 16 18 20 20 20 20 20 18 17 16 16 16 17 18 19 21 22 23 24 24 23 22 19 17 17 18
6 5 6 6 5 5 5 5 5 6 6 6 6 6 6 6 6 6 6 6 5 5 5 5 5 5 3 2 4 6 8 7 6 6 6 6 5 4 4 4 5 5 5 4 3 3 2 1 2 3 2 3 3 2 2 3 6 9 11 13 15 17 19 20 21 21 21 20 19 18 16 16 16 17 17 19 20 21 21 22 22 22 21 19 18 19
6 6 6 6 5 5 5 5 5 5 6 6 6 6 6 6 6 6 6 5 4 4 4 4 4 4 4 4 4 5 8 7 7 6 6 6 6 4 4 4 4 5 5 4 4 3 3 1 1 2 2 3 3 3 3 3 5 7 9 11 13 15 17 19 20 21 21 21 20 20 18 17 17 17 17 17 18 18 19 20 20 20 20 19 19 20
6 6 6 5 5 5 5 5 5 5 6 6 6 6 6 6 6 6 6 5 4 4 5 5 4 4 4 5 5 6 7 7 6 6 5 6 5 4 3 3 4 5 5 4 4 4 4 2 1 2 3 4 4 3 4 4 6 7 7 9 11 13 15 17 18 19 20 21 21 21 20 19 19 18 17 17 17 17 18 18 18 18 18 19 20 21
6 6 5 5 6 6 5 5 5 5 6 7 7 7 7 7 7 6 5 5 5 5 5 5 5 5 5 6 7 7 6 6 6 5 5 5 5 4 3 3 3 5 5 5 4 4 4 3 3 3 3 3 3 4 5 6 7 7 7 7 9 11 13 15 16 18 19 20 21 21 22 21 20 20 19 19 18 17 17 17 17 16 16 17 18 20
7 7 6 5 5 5 5 5 6 7 8 8 8 7 7 7 6 6 5 5 5 5 5 5 5 6 5 6 7 7 6 6 5 4 3 4 4 3 2 3 3 4 5 4 4 4 4 3 3 3 3 3 3 4 5 8 8 8 7 6 7 9 11 13 14 16 18 19 20 20 21 21 20 20 20 20 19 18 18 17 16 16 16 16 17 18
7 7 7 7 6 6 6 6 7 8 9 9 8 6 6 6 7 6 6 6 6 6 6 6 6 7 7 8 8 8 6 5 4 4 2 3 4 4 3 3 2 4 5 4 4 4 4 4 3 3 4 4 3 4 6 8 9 8 6 6 6 7 9 11 12 14 16 17 18 18 19 19 20 20 20 20 20 19 18 17 17 16 16 16 15 16
7 7 7 7 7 7 7 7 7 7 8 7 7 6 6 6 7 7 6 6 6 6 7 7 7 7 8 8 8 8 6 5 4 3 2 3 3 3 3 3 2 4 5 4 4 4 4 4 4 3 4 4 4 4 5 8 8 8 6 5 5 6 7 9 11 12 13 15 16 17 18 18 19 19 20 20 19 19 18 18 17 17 17 16 16 15
7 7 7 7 6 6 7 7 6 6 6 6 6 6 7 7 7 7 6 6 6 6 6 7 8 8 8 8 7 6 5 4 4 3 2 3 3 3 3 3 2 3 4 4 4 5 4 4 3 3 4 5 4 4 5 7 8 7 6 4 3 4 6 8 9 10 11 13 14 16 17 18 18 19 19 19 19 18 18 18 17 17 17 17 17 17
7 7 7 7 8 8 9 8 8 8 7 7 6 7 7 8 8 7 6 6 6 6 6 7 7 7 6 6 5 4 3 1 1 2 3 3 3 3 3 3 2 1 2 3 4 5 5 4 4 3 3 4 4 5 5 7 7 7 5 4 3 3 5 6 8 9 10 11 13 14 16 17 17 18 18 18 18 17 17 17 17 17 17 17 17 17
10 10 10 11 12 14 14 14 13 12 12 9 8 7 7 7 7 7 6 5 5 5 6 6 7 6 5 4 3 3 3 4 4 4 4 3 3 3 2 3 3 2 1 2 3 4 5 5 4 3 3 4 4 5 6 7 8 7 6 4 3 3 4 6 7 8 9 11 12 13 15 16 17 17 18 18 17 17 16 16 16 17 17 16 16 16
14 15 15 16 15 15 15 14 14 14 14 13 11 10 8 7 6 6 6 5 5 5 5 5 6 6 5 4 3 3 4 4 4 5 4 3 3 3 2 3 3 3 2 1 2 3 5 5 4 4 4 4 4 5 6 7 8 7 6 4 4 4 5 6 7 8 10 11 12 13 14 15 16 17 17 17 17 17 16 16 16 16 15 14 13 13
15 15 15 14 14 14 13 13 13 13 13 13 13 12 9 6 5 5 5 5 5 5 5 5 5 5 4 4 4 4 4 3 4 5 5 4 3 2 2 2 3 3 2 2 1 2 4 4 4 4 4 4 4 5 6 7 7 7 6 5 4 5 6 7 8 9 10 11 12 13 14 15 16 16 17 17 17 16 16 16 15 15 13 11 9 8
13 13 13 13 13 12 12 11 11 11 12 12 12 11 8 5 4 4 5 5 5 5 5 5 5 4 4 5 4 4 3 1 3 5 6 4 3 3 3 3 3 3 2 2 1 2 2 2 2 3 5 5 5 5 5 6 6 7 6 5 5 5 6 7 8 9 10 11 12 13 14 15 15 16 16 16 16 16 16 15 14 12 9 8 7 6
10 11 10 11 10 10 9 9 9 9 10 11 10 9 6 4 4 4 4 4 5 5 5 5 5 5 4 5 4 3 1 2 4 5 6 4 3 3 4 4 3 3 2 1 1 2 2 1 1 1 3 5 5 5 5 5 6 5 5 4 4 4 6 8 9 9 11 12 13 14 15 15 16 16 16 16 16 16 15 14 12 9 6 6 6 6
8 8 8 8 8 8 7 7 7 7 8 9 8 7 5 4 4 4 4 4 4 4 5 5 5 5 4 3 3 2 1 2 4 6 6 4 3 3 4 4 4 4 3 2 0 1 2 1 1 1 2 5 5 5 5 5 5 5 4 3 2 2 5 7 8 9 10 12 13 14 15 16 16 16 16 16 16 15 15 14 11 8 6 6 6 6
7 7 6 7 6 6 6 5 5 6 6 6 6 5 5 4 4 4 4 4 4 4 4 5 5 5 4 3 3 2 2 2 4 6 6 4 3 2 3 3 4 4 3 2 1 0 1 1 1 0 1 3 4 4 4 4 5 4 4 3 2 2 3 5 6 7 8 10 12 14 15 16 16 16 16 16 16 16 15 14 11 8 6 6 6 7
7 6 6 6 6 6 5 5 5 5 5 5 5 5 4 4 4 4 4 4 4 4 4 5 5 5 5 4 4 4 3 3 4 6 6 4 3 2 2 3 3 4 4 3 2 1 1 1 1 1 2 2 3 3 4 4 4 4 4 3 2 2 3 3 4 5 5 7 9 11 13 14 15 16 16 16 16 16 15 14 12 10 8 7 7 7
7 6 6 6 6 6 6 6 6 6 5 5 5 5 5 4 4 4 4 4 4 4 4 4 5 5 5 4 4 4 5 4 4 5 5 3 2 2 3 3 3 4 4 3 2 1 1 0 0 1 2 2 2 3 3 3 3 3 3 3 2 2 3 3 3 4 4 4 5 6 8 10 12 13 14 15 16 16 15 14 13 11 10 8 8 8
6 6 6 6 6 6 6 6 6 6 6 5 5 5 5 5 5 4 4 4 4 4 4 5 5 5 5 4 4 4 5 4 4 5 4 3 2 2 3 2 3 4 4 4 3 2 1 1 0 2 3 3 2 2 2 3 3 3 3 2 2 3 3 3 4 4 4 4 4 4 5 6 7 9 10 13 14 14 15 14 13 12 11 10 10 9
6 6 6 6 6 6 6 6 6 6 6 6 6 6 5 5 5 5 5 5 5 5 5 5 5 5 5 5 6 6 6 6 6 6 5 4 3 2 2 2 3 3 3 4 4 3 2 1 0 2 4 3 3 2 2 3 3 4 3 3 3 3 3 4 4 5 5 4 4 4 4 4 5 6 7 11 13 14 15 15 14 14 13 12 12 11
6 6 6 6 6 6 6 6 6 6 6 6 6 6 6 6 6 6 5 5 5 6 6 6 7 7 7 7 7 7 7 7 7 7 7 5 4 3 3 2 3 3 3 3 4 4 3 2 0 2 3 3 3 3 3 4 4 4 3 3 3 4 4 5 6 6 6 6 5 4 4 4 5 6 8 11 13 14 15 16 16 16 16 15 14 14
6 6 6 6 6 6 6 6 6 6 6 6 6 7 7 7 7 6 6 6 6 7 7 6 6 7 9 10 10 9 9 10 10 10 9 7 5 4 3 3 3 3 3 3 3 4 3 2 1 2 3 3 3 4 5 5 5 4 4 4 4 4 5 5 6 7 7 7 7 6 6 6 6 7 8 9 10 10 11 12 13 15 17 17 17 17
7 6 6 6 6 6 6 6 6 6 6 7 7 7 7 7 7 7 6 6 6 7 7 7 6 7 8 9 11 11 12 12 12 12 11 8 6 5 4 4 4 4 3 3 4 4 4 3 2 1 3 4 4 4 4 5 5 5 5 5 5 5 5 6 6 8 8 8 8 7 6 6 6 7 7 7 8 8 9 9 10 12 14 13 15 17
7 7 7 7 7 6 6 6 6 7 7 7 7 7 7 7 6 6 6 6 6 6 7 7 7 6 7 8 9 10 10 9 9 10 9 8 7 5 5 4 4 4 4 4 4 4 4 4 3 1 2 4 5 5 5 5 6 6 7 5 4 4 4 5 6 7 8 8 8 7 6 6 6 6 6 7 7 8 8 8 8 10 11 11 12 12
7 7 7 6 6 7 7 7 7 7 7 7 6 6 6 6 6 5 6 6 5 5 5 5 5 5 6 6 6 6 6 6 6 6 6 6 6 6 5 4 4 4 4 4 4 4 5 4 3 1 1 3 4 5 5 5 6 7 7 6 5 5 5 6 6 7 8 8 8 8 7 7 7 7 7 7 6 6 6 7 8 9 9 10 11 12
8 7 7 6 6 6 6 7 7 7 7 6 6 5 5 5 6 6 6 6 6 5 5 5 5 5 4 3 3 3 3 4 5 6 6 5 4 5 5 5 4 4 4 4 5 5 4 3 2 2 2 2 4 5 5 5 5 5 6 7 8 8 7 6 6 7 9 9 8 8 9 8 7 7 7 7 6 6 6 6 7 8 8 8 9 10
7 7 7 7 7 7 7 7 7 7 6 6 5 5 5 6 6 6 6 6 6 6 6 5 5 4 4 3 3 3 3 4 5 6 6 5 3 3 5 5 5 4 4 3 3 3 3 3 3 3 3 2 3 5 5 5 5 6 6 8 9 8 6 4 4 5 8 8 9 8 8 8 7 7 7 7 7 6 6 7 7 7 6 7 8 8
7 7 7 7 6 6 6 6 6 6 6 6 6 6 6 6 6 6 6 6 6 6 6 5 5 4 3 4 4 4 4 5 6 6 7 7 6 2 3 5 6 6 5 4 3 3 2 3 3 4 3 3 3 4 6 6 5 5 5 6 7 8 7 6 5 6 8 8 8 8 8 8 7 7 7 7 7 6 6 6 6 6 6 6 7 7
6 7 7 7 7 7 7 7 7 6 6 6 6 6 6 7 7 6 6 6 6 6 6 5 5 4 3 4 4 4 4 5 5 5 6 8 8 7 3 1 2 3 3 2 2 2 2 2 3 3 3 3 3 4 5 6 6 6 5 6 7 8 8 7 6 7 8 8 8 8 8 8 8 8 8 8 7 7 6 7 7 7 6 6 6 7
7 7 7 7 7 7 8 7 7 7 7 7 7 7 7 7 7 6 6 6 6 6 6 5 4 4 4 4 4 4 5 5 5 5 5 6 7 7 6 5 5 4 4 4 5 5 5 4 3 3 3 4 4 4 4 5 6 6 6 7 8 8 8 7 6 7 8 9 9 9 8 9 9 9 8 8 7 7 7 7 7 7 6 6 6 7
7 7 8 7 7 7 8 8 7 7 7 7 7 7 7 7 7 6 6 6 6 6 6 5 5 4 4 4 5 5 5 5 5 5 6 6 6 6 5 6 6 6 6 6 7 8 8 7 6 5 4 4 4 4 4 4 5 6 6 7 8 8 8 6 5 6 7 8 9 9 9 9 10 10 9 8 7 7 7 7 7 7 6 6 6 7
8 8 8 8 8 8 8 8 8 8 7 7 7 7 7 7 7 7 6 6 6 6 6 5 5 5 5 5 5 5 5 5 5 5 6 6 6 6 5 4 4 5 6 7 9 10 10 10 10 9 7 6 5 4 4 4 4 4 5 6 7 9 9 7 6 5 5 6 8 9 8 9 10 10 10 9 7 7 7 7 7 6 6 6 6 7
8 8 8 8 8 8 8 8 8 8 8 8 8 7 7 8 8 8 6 6 6 6 5 6 5 5 5 5 5 5 6 5 5 5 5 6 5 5 5 4 3 2 4 5 7 8 9 11 12 12 11 9 7 5 5 4 4 4 4 5 7 8 8 7 6 6 5 6 6 6 6 7 8 10 10 10 9 8 7 7 7 7 6 6 6 7
8 8 8 8 8 8 8 8 8 8 8 8 8 8 7 7 7 7 7 6 6 6 5 6 5 5 5 5 5 6 6 5 5 5 5 5 5 5 5 4 3 2 2 3 4 5 5 7 9 12 15 14 12 8 5 5 4 4 4 5 6 7 8 8 7 6 6 6 6 6 6 6 7 8 9 11 11 10 8 8 7 7 6 6 7 8
9 8 8 8 8 8 8 8 8 8 8 8 8 8 7 7 7 7 7 6 6 6 6 6 5 5 5 5 5 6 6 6 5 5 5 5 5 5 5 4 4 2 1 2 2 3 3 3 4 7 12 16 17 14 7 5 4 4 4 4 4 5 7 7 7 6 7 6 6 6 6 7 7 7 8 10 11 10 9 8 8 7 6 6 8 9
Wind_Direction
305 306 308 309 309 308 309 314 317 319 318 318 317 315 310 306 299 293 290 287 285 284 285 282 281 283 290 297 299 299 298 298 299 300 301 303 304 305 305 305 333 46 52 29 5 346 335 330 322 311 289 248 218 203 197 194 193 193 194 197 199 201 203 205 208 209 209 209 209 208 205 203 204 206 208 209 208 206 202 200 198 197 194 189 183 180
303 303 304 309 311 311 310 317 319 320 319 318 318 316 313 308 301 294 288 284 282 283 285 284 285 288 294 295 295 295 294 295 295 297 297 299 300 302 303 300 321 53 61 40 11 347 333 326 318 307 287 250 216 199 193 191 189 188 188 190 192 193 193 194 197 200 202 204 205 205 204 204 205 206 208 208 207 206 203 200 198 196 192 186 181 178
304 304 306 312 314 314 312 317 318 318 318 317 317 317 314 308 303 296 289 286 285 285 285 285 286 287 288 287 288 289 290 291 292 293 293 294 296 298 300 300 321 72 75 52 17 347 330 323 315 304 286 252 217 196 188 187 186 185 184 184 184 185 184 183 185 188 192 196 198 200 201 202 204 205 205 205 205 203 202 200 198 196 191 184 179 177
304 305 311 315 315 313 312 314 315 316 316 316 316 315 312 307 302 298 297 297 295 291 286 285 285 283 282 280 281 283 286 287 289 290 290 290 291 293 296 298 309 72 84 64 24 347 328 323 314 302 284 252 215 193 186 184 183 183 182 179 179 179 179 178 179 181 184 188 191 194 197 199 200 202 202 202 201 199 198 198 198 197 191 183 178 176
304 307 313 315 313 311 311 311 312 313 316 317 317 315 310 305 303 305 309 310 308 304 300 298 294 289 283 277 276 278 282 285 286 287 286 286 286 288 291 294 299 71 90 73 32 346 327 321 313 302 282 250 212 190 184 182 182 181 180 177 176 177 177 177 177 178 178 181 185 188 192 194 196 198 200 199 198 196 194 194 195 196 192 185 180 177
305 309 314 314 312 310 310 310 312 315 318 319 317 313 308 304 306 311 316 317 316 314 311 308 302 295 286 276 272 274 278 282 283 283 282 281 281 283 287 290 291 89 99 85 43 343 323 318 311 300 280 248 213 190 182 182 182 181 179 175 174 175 176 177 178 178 177 179 182 185 188 191 194 197 199 198 197 195 193 191 193 195 194 189 184 180
304 308 313 313 311 309 308 309 313 319 323 322 317 312 307 305 308 313 315 314 313 310 307 304 301 297 290 277 270 268 274 277 279 279 277 276 276 279 284 286 284 218 106 99 71 337 318 316 310 299 277 246 212 189 180 181 182 182 179 175 173 173 174 177 178 179 179 181 182 184 186 190 193 196 198 197 196 195 193 191 190 191 193 191 188 184
302 307 312 313 311 309 306 307 314 322 326 321 316 312 310 311 314 316 314 309 307 305 305 305 304 301 296 285 273 264 267 273 274 273 272 271 273 278 283 284 278 234 114 108 93 332 313 312 308 299 277 245 214 190 179 180 183 183 181 176 172 170 171 174 176 179 181 184 186 186 186 189 192 195 196 196 195 195 194 191 188 187 189 190 190 187
301 306 311 313 312 309 306 308 315 322 324 317 312 310 311 317 320 320 317 313 311 310 309 309 307 304 301 295 285 271 262 267 268 269 269 270 276 283 287 287 279 237 120 115 107 331 309 307 304 296 277 247 216 193 180 180 183 184 183 178 173 169 166 169 173 177 181 185 188 189 189 190 192 194 195 195 194 194 194 190 187 185 186 189 190 189
300 304 309 312 311 308 306 309 315 320 319 311 305 303 309 320 324 324 322 319 318 316 313 310 307 304 303 301 294 282 267 267 270 271 272 274 279 283 286 285 279 248 129 120 114 349 303 301 298 293 279 252 220 194 180 179 182 185 185 181 176 170 165 165 168 173 178 183 187 189 190 191 192 194 195 194 194 194 193 190 185 183 184 188 190 191
300 304 309 311 309 306 305 309 314 317 316 310 306 307 315 327 329 326 323 321 321 320 317 311 306 302 302 301 298 291 276 271 273 276 276 276 277 279 279 276 267 245 141 125 120 138 293 292 291 288 278 256 224 197 181 178 180 183 184 182 178 173 168 166 166 168 172 177 182 186 190 192 193 194 195 194 194 193 192 190 185 182 183 186 189 190
302 305 311 310 309 307 307 310 312 314 315 316 317 321 328 334 330 324 319 318 319 319 318 312 305 299 296 296 295 290 278 275 278 284 289 283 278 275 273 266 253 225 147 127 124 168 280 285 287 287 281 259 224 197 184 177 176 178 182 182 179 176 172 168 166 165 167 170 176 181 186 190 193 194 195 194 194 193 192 191 187 183 183 185 187 188
300 304 309 309 307 308 311 314 316 319 321 323 326 328 329 329 325 319 313 312 313 315 315 311 306 300 293 285 280 277 275 273 277 283 291 286 277 270 266 254 232 203 159 140 137 166 262 281 288 292 295 278 224 192 181 173 170 171 175 178 179 177 174 171 168 166 165 166 170 175 180 185 189 192 194 194 194 194 194 193 191 188 185 186 187 187
301 306 308 307 307 309 313 318 319 320 321 323 323 323 322 321 319 316 311 311 312 314 313 310 306 303 297 289 296 310 318 310 300 290 283 276 269 263 259 244 220 198 168 155 155 171 228 277 291 302 318 329 272 183 177 169 165 165 168 172 175 176 175 173 171 169 168 167 168 170 173 178 182 186 189 190 192 194 195 196 195 193 190 188 187 187
305 308 308 307 308 310 315 318 318 318 317 317 317 317 318 318 318 317 315 316 317 318 317 313 308 302 282 309 356 3 353 345 336 324 307 288 271 259 250 237 218 197 174 162 160 170 199 273 298 314 331 355 4 7 176 165 162 161 162 166 170 172 173 173 173 173 172 172 171 171 171 172 174 176 179 182 186 190 194 196 196 196 194 191 189 188
305 307 307 307 308 311 315 317 317 315 313 313 314 317 320 320 319 317 315 316 318 321 322 321 316 307 281 56 46 25 8 356 347 335 323 308 288 259 241 230 216 199 182 168 158 159 182 267 302 315 329 6 26 39 74 148 154 156 157 160 164 167 169 171 172 173 175 175 176 175 174 172 169 169 170 173 178 183 188 191 193 194 194 192 190 188
304 305 305 306 307 310 314 315 314 312 310 310 312 316 319 317 314 311 309 313 317 321 326 325 322 318 310 346 17 20 14 358 345 332 321 309 298 278 245 229 216 202 188 172 160 154 161 217 292 311 339 31 49 61 81 124 140 146 150 154 159 162 165 167 170 172 175 176 178 179 179 176 173 169 167 168 171 174 178 182 186 189 192 192 190 187
304 306 307 306 307 310 313 313 312 310 308 309 311 314 314 310 306 303 304 310 317 323 325 321 317 316 315 318 336 358 7 352 338 324 314 302 295 285 262 235 217 202 187 172 161 154 153 173 278 323 10 49 59 66 83 107 122 131 138 146 153 157 160 163 167 170 173 176 178 180 181 181 178 174 170 169 168 168 170 173 177 182 187 189 188 185
305 306 306 306 307 309 311 310 310 310 310 311 313 313 311 308 304 302 303 312 319 322 319 314 310 307 307 306 316 332 351 341 329 316 304 293 286 279 268 245 221 202 187 175 161 149 145 144 112 60 53 61 66 75 87 98 106 113 122 136 146 152 156 160 163 167 171 175 178 180 182 182 180 178 175 172 170 168 167 168 170 174 180 182 182 180
303 303 304 307 308 308 305 305 307 309 310 309 309 309 309 308 306 306 309 318 322 319 314 308 305 304 304 303 306 316 333 330 321 307 292 284 281 279 276 264 226 200 187 178 163 148 138 136 119 94 76 72 73 80 89 94 97 101 109 124 137 146 152 157 161 165 169 173 176 179 181 181 180 178 177 175 174 172 169 168 169 171 174 177 178 177
301 300 303 307 307 304 302 304 306 307 305 305 306 306 308 307 307 309 317 323 322 317 312 307 304 303 303 299 298 302 313 314 309 299 289 284 283 285 290 275 234 202 183 175 163 150 138 140 135 118 101 86 79 81 84 87 89 93 103 115 128 139 147 154 159 163 166 170 173 176 178 178 178 177 176 176 176 175 173 172 171 172 173 174 176 176
298 299 303 303 301 298 297 300 301 301 301 303 306 308 309 307 308 312 320 322 320 314 310 305 301 298 294 288 286 285 287 284 282 282 284 286 290 297 312 292 243 201 178 169 159 149 139 141 138 124 109 102 90 78 77 81 83 86 94 106 121 132 141 149 155 160 164 167 170 172 174 174 174 174 175 175 176 177 177 176 176 175 175 176 176 176
295 298 301 300 298 295 295 295 296 298 303 306 308 309 306 305 307 311 318 319 314 308 303 299 295 290 283 277 275 273 266 254 251 256 270 279 291 304 323 306 251 202 178 166 156 147 138 140 137 126 107 109 101 87 78 79 79 81 85 94 110 125 135 143 150 156 161 164 166 168 170 171 171 171 172 173 175 176 178 178 178 178 179 180 180 180
298 299 300 298 296 294 292 293 298 304 310 311 309 306 300 299 303 307 311 308 303 299 299 299 296 291 285 281 277 272 261 240 232 238 258 273 288 304 327 318 261 204 182 166 153 145 138 139 137 128 110 116 113 103 90 84 81 79 78 83 99 117 128 138 145 151 157 161 164 165 167 168 168 168 168 170 172 174 176 177 178 179 180 182 184 185
304 302 300 298 297 296 297 301 306 310 311 310 306 302 298 300 302 305 303 298 297 299 305 305 302 299 296 294 292 293 303 324 293 272 278 284 294 307 328 331 319 245 190 169 155 144 141 138 134 128 118 121 121 117 104 95 90 87 82 84 97 113 123 132 139 146 153 158 161 163 164 165 164 164 165 166 167 169 172 173 175 177 179 183 185 187
311 308 305 304 303 303 304 307 309 309 309 306 304 302 302 306 307 305 299 298 305 313 315 308 303 299 298 297 302 316 342 352 349 340 325 312 307 311 329 342 345 344 342 171 160 151 144 138 134 131 126 128 127 124 115 107 101 97 92 95 103 115 123 129 136 143 150 155 159 161 161 161 161 160 160 161 162 164 166 169 171 174 176 180 183 185
316 313 310 310 309 310 311 311 311 310 308 306 306 307 310 312 309 304 300 309 319 321 313 306 303 302 300 304 311 320 328 338 352 355 341 317 303 303 324 345 348 348 356 34 155 157 150 141 136 133 130 130 129 127 122 114 108 104 100 104 114 124 128 131 136 141 147 152 155 157 158 158 157 157 157 158 159 160 162 165 167 169 171 174 179 183
319 317 316 315 315 315 315 315 314 312 310 308 310 313 317 314 307 303 305 318 321 317 306 305 307 310 312 317 316 312 308 328 352 355 337 312 295 297 325 342 346 347 351 6 61 141 155 145 138 133 131 127 126 124 123 116 110 107 107 113 123 129 131 133 137 142 146 150 153 154 156 156 156 156 156 157 157 158 159 160 161 163 165 169 173 175
319 318 316 317 317 318 318 318 316 314 312 313 316 320 323 315 306 305 310 317 316 311 305 307 310 313 315 311 305 295 280 340 7 359 341 317 303 306 330 334 343 350 353 7 53 97 136 139 138 134 132 124 122 123 121 116 110 106 106 116 125 130 132 134 138 143 146 149 152 154 155 156 157 157 157 158 157 157 155 154 155 157 161 163 164 163
319 318 318 319 319 320 320 318 316 314 314 316 319 322 322 315 309 308 311 312 310 307 305 306 309 311 314 309 302 292 268 45 25 6 349 333 323 323 332 331 337 347 354 8 85 114 116 95 88 121 131 123 121 121 121 118 114 110 109 120 129 133 131 134 138 143 148 151 153 154 156 157 158 159 159 159 157 155 152 150 149 150 153 154 154 153
319 319 319 320 321 321 321 319 316 314 315 317 319 320 319 316 313 310 309 307 305 302 301 302 304 307 312 312 308 308 332 22 19 10 358 341 329 323 327 326 329 334 342 345 33 146 139 114 48 58 124 119 118 117 118 118 120 122 125 135 148 145 129 129 134 141 147 151 154 156 157 158 160 160 160 158 155 152 148 147 145 143 145 145 146 146
319 318 319 321 323 323 323 320 318 316 317 318 318 318 318 317 314 310 307 303 300 296 295 295 297 299 302 299 297 300 310 337 359 4 358 341 322 308 316 319 320 322 325 322 316 292 143 134 124 88 110 109 109 110 112 116 121 127 135 142 154 145 122 122 128 135 142 149 153 156 157 158 159 159 158 155 152 149 147 146 144 142 142 142 142 140
319 319 321 323 325 326 326 323 321 320 320 321 320 320 320 318 313 308 303 298 293 290 288 289 290 291 292 288 283 281 283 303 336 352 354 339 320 305 311 315 316 316 315 314 316 329 46 116 125 111 97 92 94 99 109 115 122 130 139 144 149 145 127 124 123 125 127 140 148 152 154 155 155 154 153 150 149 148 147 146 145 143 141 141 138 135
321 322 325 328 329 329 328 326 325 325 325 323 322 321 320 316 311 305 298 291 286 281 279 279 281 284 287 286 282 279 279 294 322 342 348 335 318 304 306 309 316 321 321 320 323 340 25 3 125 126 108 91 81 84 98 112 121 128 138 142 145 147 139 127 118 110 107 116 130 142 148 149 148 147 147 146 146 146 146 145 143 142 140 139 138 135
324 327 332 334 334 332 330 329 328 328 327 325 323 320 318 314 308 302 296 288 282 277 271 268 268 270 274 278 280 281 282 294 313 326 330 324 314 304 303 305 321 331 329 326 329 340 31 328 183 140 121 106 90 77 86 108 117 122 126 130 135 135 131 120 110 101 94 94 102 115 130 137 140 141 142 142 142 142 141 139 138 136 135 135 134 134
330 333 337 338 336 334 331 330 330 329 328 325 322 319 315 311 306 301 296 290 283 277 271 264 261 260 260 264 269 274 280 289 300 307 310 309 305 302 298 303 322 333 334 328 329 336 349 327 165 134 123 117 108 99 97 108 113 116 117 118 115 112 107 103 101 97 92 86 85 90 103 115 122 127 131 130 129 128 128 126 125 124 123 124 124 125
334 336 339 339 337 334 332 330 329 328 326 323 319 316 312 308 304 300 295 289 283 278 273 268 262 257 254 256 260 266 274 282 289 293 295 293 290 285 282 291 307 319 324 323 325 328 327 319 157 134 129 126 124 123 122 119 117 114 112 110 105 99 94 93 93 92 90 84 79 79 84 95 102 108 112 115 115 114 114 113 112 111 110 109 110 112
338 338 339 339 337 335 331 329 327 326 323 319 316 312 309 306 303 299 294 287 281 276 273 269 265 260 256 256 257 260 265 270 275 277 279 276 271 266 265 275 286 294 296 302 308 311 312 310 278 146 138 130 126 127 129 127 124 119 113 102 94 90 89 91 92 92 91 88 83 80 79 87 96 102 106 109 109 108 108 106 105 103 102 100 99 100
340 339 338 338 336 333 329 326 324 321 318 315 312 309 307 305 304 301 296 290 283 277 273 272 270 267 262 259 258 258 260 262 264 265 265 261 255 250 253 263 273 279 278 280 283 287 291 298 293 187 140 131 129 128 126 127 128 127 122 106 90 81 82 89 93 96 97 95 91 85 81 84 91 98 103 108 110 111 112 111 110 109 106 102 97 95
339 338 336 335 333 329 325 322 320 317 314 310 309 308 309 310 310 308 304 299 293 287 283 279 275 271 266 262 259 257 256 256 257 257 257 249 241 235 237 247 260 271 276 274 273 274 278 285 289 282 141 137 135 134 130 133 138 139 133 120 104 90 83 88 92 95 97 96 95 91 86 83 85 88 93 99 105 110 115 117 118 118 117 116 112 106
338 337 335 333 329 325 321 319 317 315 313 311 312 314 317 320 320 319 317 314 310 305 300 293 284 275 268 261 259 261 265 269 275 278 274 258 242 228 225 235 247 261 272 275 274 272 275 282 292 316 115 130 128 127 126 134 140 140 131 122 116 108 95 88 90 94 95 94 93 91 89 84 80 79 80 81 84 91 102 114 119 120 121 123 124 124
338 336 334 330 327 324 321 320 319 318 318 317 319 322 326 328 328 327 326 325 323 321 319 314 306 299 292 289 289 296 308 313 318 320 316 296 262 231 219 224 234 247 264 275 279 281 285 301 332 14 51 106 120 123 122 124 123 120 115 117 114 107 90 83 87 96 99 97 95 92 88 83 79 76 76 76 73 71 73 91 104 113 119 123 125 128
337 334 331 328 325 322 321 323 325 326 326 327 329 331 334 333 332 330 329 327 325 324 324 320 316 314 320 331 336 335 331 330 332 335 338 333 306 238 212 216 224 236 251 271 286 298 316 354 20 26 14 42 103 119 119 113 107 105 111 122 122 118 105 100 99 99 99 97 94 90 86 82 77 74 72 70 67 63 60 67 76 87 102 114 120 121
334 332 330 328 326 326 328 333 335 335 334 334 336 337 338 336 334 332 331 328 326 325 326 324 322 323 333 342 341 338 337 339 341 344 348 353 355 343 211 210 214 222 232 255 281 305 334 24 33 29 10 24 75 105 112 111 110 111 118 121 119 115 114 118 117 110 100 95 91 89 88 88 85 79 73 67 61 56 53 56 59 64 71 86 98 106
335 335 335 334 334 336 339 340 340 339 338 339 341 341 340 338 337 336 336 332 329 330 331 331 332 336 350 352 348 343 342 345 346 347 349 358 3 7 5 298 224 222 237 284 325 348 13 36 38 32 23 36 63 90 109 113 113 112 107 98 93 91 92 100 107 110 107 103 98 96 98 99 95 87 77 68 61 55 52 55 58 62 65 72 84 96
341 342 342 340 341 341 343 343 342 342 342 344 345 345 343 341 340 340 340 337 335 335 337 340 345 353 358 355 351 347 346 349 350 351 350 356 2 9 15 21 29 39 45 40 37 35 35 35 36 40 46 52 58 69 86 103 108 108 103 99 96 93 90 89 95 103 109 110 109 109 110 103 96 89 81 74 66 58 51 52 56 62 68 75 84 94
346 347 347 345 344 344 344 344 344 345 346 347 347 347 345 343 344 344 345 344 342 341 342 346 353 1 5 1 356 352 349 351 351 350 350 352 357 5 16 27 36 45 56 59 56 51 45 37 35 38 51 58 61 59 56 70 89 102 110 109 107 103 99 94 91 94 101 109 115 118 117 107 98 93 89 83 75 65 56 52 53 57 63 74 84 92
347 349 350 347 346 345 346 346 347 348 348 348 347 347 347 346 348 349 348 348 348 348 350 352 356 1 6 4 360 355 352 353 353 352 350 351 352 356 3 17 34 49 62 67 67 64 57 48 43 41 41 45 51 54 51 52 66 86 105 108 107 104 100 95 91 89 91 102 112 119 120 113 110 108 103 94 84 74 66 60 56 54 57 71 84 93
348 351 352 350 349 348 348 348 348 349 349 348 347 347 347 348 350 352 351 352 352 353 355 357 358 359 3 2 0 358 356 356 355 354 353 350 349 348 350 356 12 46 68 73 73 71 66 58 52 47 44 41 40 40 44 45 53 67 86 98 103 104 104 100 97 93 92 96 101 106 109 112 115 116 113 104 96 87 79 72 66 61 58 67 80 91
350 352 353 352 351 350 348 348 349 349 349 348 348 347 348 350 352 353 353 355 356 357 358 359 360 1 2 2 2 1 360 358 357 357 356 350 346 344 343 341 344 5 64 76 77 75 71 62 54 48 43 38 34 31 32 37 47 61 74 86 98 104 107 105 101 95 91 92 93 95 99 105 109 112 111 108 104 98 90 84 78 73 66 71 80 88
351 353 355 354 353 352 349 349 350 350 350 349 348 348 350 352 353 354 355 358 360 0 358 358 0 2 3 3 4 4 3 1 360 358 354 348 342 340 339 335 333 337 25 76 83 82 78 70 56 44 36 31 28 26 24 26 41 62 73 82 93 102 106 106 101 95 90 90 92 95 100 104 109 113 115 114 111 106 99 96 91 86 82 85 89 93